Location: Ashton River Estates
(39.1762°N, 77.0261°W)
Time: 00:20:26
(UTC+00:00)

CZ-4B R/B - Pass Details

Date: 29 October 2020
Orbit: 388 x 461 km, 97.6° (Epoch: 03 December)

Event Time Altitude Azimuth Distance (km) Brightness Sun altitude
Rises 23:22:39 0° 357° (N) 2,370 5.0 -14.6°
Reaches altitude 10° 23:24:57 10° 342° (NNW) 1,487 4.2 -15.1°
Maximum altitude 23:27:27 22° 290° (WNW) 945 3.8 -15.5°
Drops below altitude 10° 23:29:55 10° 236° (WSW) 1,449 4.9 -16.0°
Sets 23:32:08 0° 221° (SW) 2,291 5.7 -16.4°
